User: anonymous   Login
Location: Unspecified
(0.0000°N, 0.0000°E)
Time: 10:46:15
(UTC+02:00)
Language:

ARIANE 5 R/B - Orbit

View from above orbital plane
View from above orbital plane
View from above satellite
View from above satellite

Ground track
Ground track

The orbit data is extracted from the following two-line orbital elements,

1 28379U 04027B   15114.47781013 -.00000094  00000-0  19754-2 0  9997
2 28379 006.5874 236.1881 7283794 268.5161 175.9477 02.07923559 81819
Epoch (UTC): 24 April 2015 11:28:02
Eccentricity: 0.7283794
inclination: 6.5874°
perigee height: 665 km
apogee height: 38438 km
right ascension of ascending node: 236.1881°
argument of perigee: 268.5161°
revolutions per day: 2.07923559
mean anomaly at epoch: 175.9477°
orbit number at epoch: 8181

The dashed part of the orbit path shows where the satellite is in the earth's shadow,  

DLR